HB9BA-8 Weather Reports


time (UTC)temp
F
wind
direction
speed
knots
gust
knots
rain 1hr
in
rain 24hr
in
rain mn
in
humidity
%
barometer
mb
20260505185327 64 0 0.0 0.0 0.00 0.00 0.00 35 1006.5
20260505184603 65 0 0.0 0.0 0.00 0.00 0.00 35 1006.6
20260505183839 65 0 0.0 0.0 0.00 0.00 0.00 35 1006.5
20260505183115 66 0 0.0 0.0 0.00 0.00 0.00 35 1006.5
20260505182351 65 0 0.0 0.0 0.00 0.00 0.00 34 1006.3
20260505181627 66 0 0.0 0.0 0.00 0.00 0.00 34 1006.3
20260505180903 66 0 0.0 0.0 0.00 0.00 0.00 34 1006.3
20260505180139 66 0 0.0 0.0 0.00 0.00 0.00 33 1006.3
20260505175415 66 0 0.0 0.0 0.00 0.00 0.00 33 1006.4
20260505174651 67 0 0.0 0.0 0.00 0.00 0.00 32 1006.5
20260505173927 67 0 0.0 0.0 0.00 0.00 0.00 33 1006.5
20260505173203 68 0 0.0 0.0 0.00 0.00 0.00 34 1006.5
20260505172439 68 0 0.0 0.0 0.00 0.00 0.00 34 1006.5
20260505171715 68 0 0.0 0.0 0.00 0.00 0.00 33 1006.6
20260505170950 67 0 0.0 0.0 0.00 0.00 0.00 34 1006.7
20260505170226 68 0 0.0 0.0 0.00 0.00 0.00 33 1006.4
20260505165502 68 0 0.0 0.0 0.00 0.00 0.00 34 1006.4
20260505164738 68 0 0.0 0.0 0.00 0.00 0.00 34 1006.5
20260505164014 68 0 0.0 0.0 0.00 0.00 0.00 34 1006.6
20260505163250 68 0 0.0 0.0 0.00 0.00 0.00 34 1006.7
20260505162526 68 0 0.0 0.0 0.00 0.00 0.00 34 1006.7
20260505161802 67 0 0.0 0.0 0.00 0.00 0.00 34 1006.6
20260505161038 67 0 0.0 0.0 0.00 0.00 0.00 34 1006.5
20260505160314 67 0 0.0 0.0 0.00 0.00 0.00 33 1006.7
20260505153338 69 0 0.0 0.0 0.00 0.00 0.00 34 1006.3
20260505152614 69 0 0.0 0.0 0.00 0.00 0.00 35 1006.3
20260505151850 69 0 0.0 0.0 0.00 0.00 0.00 35 1006.6
20260505151126 69 0 0.0 0.0 0.00 0.00 0.00 36 1006.4
20260505150402 68 0 0.0 0.0 0.00 0.00 0.00 36 1006.4
20260505140450 67 0 0.0 0.0 0.00 0.00 0.00 38 1006.5
20260505124326 70 0 0.0 0.0 0.00 0.00 0.00 35 1006.5
20260505123602 71 0 0.0 0.0 0.00 0.00 0.00 35 1006.4
20260505122838 70 0 0.0 0.0 0.00 0.00 0.00 35 1006.4
20260505122114 70 0 0.0 0.0 0.00 0.00 0.00 35 1006.5
20260505121350 70 0 0.0 0.0 0.00 0.00 0.00 35 1006.4
20260505120625 71 0 0.0 0.0 0.00 0.00 0.00 35 1006.4
20260505115902 70 0 0.0 0.0 0.00 0.00 0.00 35 1006.4
20260505115137 71 0 0.0 0.0 0.00 0.00 0.00 35 1006.4
20260505114413 70 0 0.0 0.0 0.00 0.00 0.00 36 1006.4
20260505113650 69 0 0.0 0.0 0.00 0.00 0.00 37 1006.4
20260505112925 69 0 0.0 0.0 0.00 0.00 0.00 38 1006.4
20260505112201 68 0 0.0 0.0 0.00 0.00 0.00 37 1006.5
20260505111437 68 0 0.0 0.0 0.00 0.00 0.00 37 1006.5
20260505110713 69 0 0.0 0.0 0.00 0.00 0.00 38 1006.5
20260505101525 67 0 0.0 0.0 0.00 0.00 0.00 41 1006.7
20260505100801 67 0 0.0 0.0 0.00 0.00 0.00 41 1006.6
20260505100037 67 0 0.0 0.0 0.00 0.00 0.00 41 1006.6
20260505095313 67 0 0.0 0.0 0.00 0.00 0.00 40 1006.7
20260505094549 66 0 0.0 0.0 0.00 0.00 0.00 40 1006.7
20260505093825 67 0 0.0 0.0 0.00 0.00 0.00 38 1006.7
20260505093101 67 0 0.0 0.0 0.00 0.00 0.00 38 1006.7
20260505092337 67 0 0.0 0.0 0.00 0.00 0.00 38 1006.8
20260505091613 67 0 0.0 0.0 0.00 0.00 0.00 38 1006.6
20260505090849 66 0 0.0 0.0 0.00 0.00 0.00 38 1006.4
20260505090125 66 0 0.0 0.0 0.00 0.00 0.00 38 1006.4
20260505085401 66 0 0.0 0.0 0.00 0.00 0.00 38 1006.4
20260505084637 66 0 0.0 0.0 0.00 0.00 0.00 40 1006.5
20260505083913 66 0 0.0 0.0 0.00 0.00 0.00 41 1006.5
20260505083149 66 0 0.0 0.0 0.00 0.00 0.00 41 1006.6
20260505082425 66 0 0.0 0.0 0.00 0.00 0.00 41 1006.6
20260505081701 65 0 0.0 0.0 0.00 0.00 0.00 41 1006.7
20260505080937 65 0 0.0 0.0 0.00 0.00 0.00 42 1006.7
20260505080213 65 0 0.0 0.0 0.00 0.00 0.00 43 1006.1
20260505075449 65 0 0.0 0.0 0.00 0.00 0.00 43 1007.0
20260505074725 64 0 0.0 0.0 0.00 0.00 0.00 43 1007.1
20260505074001 64 0 0.0 0.0 0.00 0.00 0.00 44 1007.2
20260505073237 64 0 0.0 0.0 0.00 0.00 0.00 45 1007.4
20260505072512 64 0 0.0 0.0 0.00 0.00 0.00 45 1007.5
20260505071748 64 0 0.0 0.0 0.00 0.00 0.00 45 1007.6
20260505071024 63 0 0.0 0.0 0.00 0.00 0.00 46 1007.7
20260505070300 63 0 0.0 0.0 0.00 0.00 0.00 45 1007.7
20260505065536 62 0 0.0 0.0 0.00 0.00 0.00 46 1007.8
20260505064812 62 0 0.0 0.0 0.00 0.00 0.00 45 1007.9
20260505064048 62 0 0.0 0.0 0.00 0.00 0.00 45 1008.0
20260505063324 62 0 0.0 0.0 0.00 0.00 0.00 45 1008.0
20260505062600 62 0 0.0 0.0 0.00 0.00 0.00 45 1008.1
20260505061836 62 0 0.0 0.0 0.00 0.00 0.00 45 1008.2
20260505061112 62 0 0.0 0.0 0.00 0.00 0.00 45 1008.2
20260505060348 62 0 0.0 0.0 0.00 0.00 0.00 45 1008.4
20260505055624 62 0 0.0 0.0 0.00 0.00 0.00 44 1008.3
20260505054900 62 0 0.0 0.0 0.00 0.00 0.00 44 1008.3
20260505054136 62 0 0.0 0.0 0.00 0.00 0.00 44 1008.3
20260505053412 62 0 0.0 0.0 0.00 0.00 0.00 43 1008.2
20260505052648 62 0 0.0 0.0 0.00 0.00 0.00 43 1008.3
20260505051924 62 0 0.0 0.0 0.00 0.00 0.00 42 1008.2
20260505051200 62 0 0.0 0.0 0.00 0.00 0.00 42 1008.2
20260505050436 62 0 0.0 0.0 0.00 0.00 0.00 42 1008.1
20260505041248 60 0 0.0 0.0 0.00 0.00 0.00 40 1008.0
20260505040524 60 0 0.0 0.0 0.00 0.00 0.00 40 1008.0
20260505035800 60 0 0.0 0.0 0.00 0.00 0.00 41 1008.1
20260505035036 60 0 0.0 0.0 0.00 0.00 0.00 40 1008.2
20260505034312 60 0 0.0 0.0 0.00 0.00 0.00 40 1008.3
20260505033548 60 0 0.0 0.0 0.00 0.00 0.00 41 1008.3
20260505032100 60 0 0.0 0.0 0.00 0.00 0.00 40 1008.1
20260505031336 60 0 0.0 0.0 0.00 0.00 0.00 40 1008.2
20260505030612 60 0 0.0 0.0 0.00 0.00 0.00 39 1008.2
20260505025848 60 0 0.0 0.0 0.00 0.00 0.00 40 1008.3
20260505025124 60 0 0.0 0.0 0.00 0.00 0.00 40 1008.4
20260505024400 60 0 0.0 0.0 0.00 0.00 0.00 39 1008.5
20260505023635 60 0 0.0 0.0 0.00 0.00 0.00 39 1008.6
20260505022911 59 0 0.0 0.0 0.00 0.00 0.00 39 1008.6
20260505022147 59 0 0.0 0.0 0.00 0.00 0.00 39 1008.6
20260505021423 59 0 0.0 0.0 0.00 0.00 0.00 39 1008.6
20260505020659 60 0 0.0 0.0 0.00 0.00 0.00 38 1008.6
20260505015935 60 0 0.0 0.0 0.00 0.00 0.00 39 1008.6
20260505015212 60 0 0.0 0.0 0.00 0.00 0.00 38 1008.6
20260505014447 59 0 0.0 0.0 0.00 0.00 0.00 38 1008.6
20260505013723 59 0 0.0 0.0 0.00 0.00 0.00 38 1008.6
20260505012959 60 0 0.0 0.0 0.00 0.00 0.00 38 1008.6
20260505012235 60 0 0.0 0.0 0.00 0.00 0.00 38 1008.6
20260505011511 60 0 0.0 0.0 0.00 0.00 0.00 38 1008.7
20260505010747 60 0 0.0 0.0 0.00 0.00 0.00 38 1008.8
20260505010023 60 0 0.0 0.0 0.00 0.00 0.00 38 1009.0
20260505005259 60 0 0.0 0.0 0.00 0.00 0.00 38 1009.0
20260505004535 60 0 0.0 0.0 0.00 0.00 0.00 38 1009.0
20260505003811 60 0 0.0 0.0 0.00 0.00 0.00 38 1009.2
20260505003047 60 0 0.0 0.0 0.00 0.00 0.00 38 1009.5
20260505002323 60 0 0.0 0.0 0.00 0.00 0.00 38 1009.6
20260505001559 60 0 0.0 0.0 0.00 0.00 0.00 38 1009.8
20260505000835 60 0 0.0 0.0 0.00 0.00 0.00 38 1009.9
20260505000111 60 0 0.0 0.0 0.00 0.00 0.00 38 1009.8
20260504235347 60 0 0.0 0.0 0.00 0.00 0.00 38 1009.9
20260504234623 60 0 0.0 0.0 0.00 0.00 0.00 39 1009.9
20260504233859 60 0 0.0 0.0 0.00 0.00 0.00 38 1009.9
20260504233135 60 0 0.0 0.0 0.00 0.00 0.00 38 1010.0
20260504232411 60 0 0.0 0.0 0.00 0.00 0.00 37 1010.0
20260504231647 60 0 0.0 0.0 0.00 0.00 0.00 37 1010.3
20260504230923 60 0 0.0 0.0 0.00 0.00 0.00 36 1010.4
20260504230159 59 0 0.0 0.0 0.00 0.00 0.00 36 1010.4
20260504225435 59 0 0.0 0.0 0.00 0.00 0.00 36 1010.4
20260504224711 59 0 0.0 0.0 0.00 0.00 0.00 36 1010.6
20260504223947 59 0 0.0 0.0 0.00 0.00 0.00 35 1010.6
20260504223223 59 0 0.0 0.0 0.00 0.00 0.00 35 1010.7
20260504222459 59 0 0.0 0.0 0.00 0.00 0.00 35 1010.6
20260504221735 60 0 0.0 0.0 0.00 0.00 0.00 36 1010.6
20260504221011 60 0 0.0 0.0 0.00 0.00 0.00 36 1010.6
20260504220247 60 0 0.0 0.0 0.00 0.00 0.00 36 1010.8
20260504215523 60 0 0.0 0.0 0.00 0.00 0.00 35 1011.0
20260504214759 60 0 0.0 0.0 0.00 0.00 0.00 35 1010.9
20260504214034 60 0 0.0 0.0 0.00 0.00 0.00 35 1010.1
20260504213310 60 0 0.0 0.0 0.00 0.00 0.00 35 1010.9
20260504212546 60 0 0.0 0.0 0.00 0.00 0.00 35 1011.0
20260504211822 61 0 0.0 0.0 0.00 0.00 0.00 35 1011.2
20260504211058 61 0 0.0 0.0 0.00 0.00 0.00 36 1011.1
20260504210334 61 0 0.0 0.0 0.00 0.00 0.00 35 1011.1
20260504205610 60 0 0.0 0.0 0.00 0.00 0.00 35 1011.1
20260504204846 62 0 0.0 0.0 0.00 0.00 0.00 35 1011.3
20260504204122 62 0 0.0 0.0 0.00 0.00 0.00 35 1011.3
20260504203358 62 0 0.0 0.0 0.00 0.00 0.00 35 1011.5
20260504202634 62 0 0.0 0.0 0.00 0.00 0.00 36 1011.6
20260504201910 63 0 0.0 0.0 0.00 0.00 0.00 36 1011.7
20260504201146 63 0 0.0 0.0 0.00 0.00 0.00 36 1011.8
20260504200422 63 0 0.0 0.0 0.00 0.00 0.00 36 1011.8
20260504195658 64 0 0.0 0.0 0.00 0.00 0.00 36 1011.7
20260504194934 64 0 0.0 0.0 0.00 0.00 0.00 35 1011.5
20260504194210 64 0 0.0 0.0 0.00 0.00 0.00 36 1011.5
20260504193446 64 0 0.0 0.0 0.00 0.00 0.00 35 1011.5
20260504192722 64 0 0.0 0.0 0.00 0.00 0.00 35 1011.5
20260504191958 64 0 0.0 0.0 0.00 0.00 0.00 34 1011.6
20260504191234 64 0 0.0 0.0 0.00 0.00 0.00 34 1011.5
20260504190510 64 0 0.0 0.0 0.00 0.00 0.00 34 1011.6